#timestamp,LO_Frequency,Hit,StdDev 
1702508415.3,286047000.4,N
1702508435.1,286047001.3,N
1702508455.9,286047001.6,N
1702508475.7,286047003.4,N
1702508495.5,286047004.2,N
1702508515.4,286047001.5,N
1702508535.2,286047005.7,N
1702508555.1,286047002.9,N
1702508556.0,286047002.9,N
1702508575.8,286047002.1,N
1702508595.6,286047002.8,N
1702508615.5,286047002.6,N
1702508635.3,286047002.3,N
1702508655.1,286046999.8,N
1702508675.9,286047002.0,N
1702508695.7,286046999.8,N
1702508715.6,286047001.2,N
1702508735.4,286046996.6,N
1702508755.2,286046995.8,N
1702508775.1,286046993.3,N
1702508776.0,286046993.3,N
1702508795.8,286046991.9,N
1702508815.6,286046995.2,N
1702508835.5,286046999.3,N
1702508855.3,286046998.3,N
1702508875.2,286046998.2,N
1702508895.9,286047001.1,N
1702508915.7,286047001.8,N
1702508935.6,286047001.9,N
1702508955.4,286047001.6,N
1702508975.2,286047002.2,N
1702508995.1,286047000.2,N
1702508996.0,286047000.2,N
1702509015.8,286046998.7,N
1702509035.7,286047005.7,N
1702509055.5,286047005.0,N
1702509075.3,286047006.9,N
1702509095.2,286047005.6,N
1702509115.0,286047003.5,N
1702509115.9,286047003.5,N
1702509135.8,286047003.0,N
1702509155.6,286047004.1,N
1702509175.4,286047001.6,N
1702509195.3,286047011.9,Y
1702509215.1,286046996.6,P
1702509235.8,286046996.7,N
1702509255.7,286046997.9,N
1702509275.5,286046997.8,N
1702509295.4,286046996.7,N
1702509315.2,286046998.8,N
1702509335.0,286047004.8,Y
1702509335.9,286047004.8,P
1702509355.8,286047006.1,N
1702509375.6,286047010.2,N
1702509395.4,286047007.7,N
1702509415.3,286047004.7,N
1702509435.1,286047003.2,N
1702509455.9,286047004.7,N
1702509475.7,286047007.8,N
1702509495.5,286047010.4,Y
1702509515.4,286047007.3,P
1702509535.2,286047007.7,P
1702509555.1,286047008.6,P
1702509556.0,286047008.6,Y
1702509575.8,286046998.2,P
1702509595.6,286047000.4,N
1702509615.5,286047000.2,N
1702509635.3,286046999.8,N
1702509655.2,286047002.2,N
1702509675.9,286047003.7,N
1702509695.7,286047000.8,N
1702509715.6,286046997.0,N
1702509735.4,286047001.1,N
1702509755.2,286047000.4,N
1702509775.1,286046998.9,N
1702509776.0,286046998.9,N
1702509795.8,286047002.0,N
1702509815.7,286047003.1,N
1702509835.5,286047003.1,N
1702509855.3,286047004.5,N
1702509875.2,286047005.0,N
1702509895.9,286047008.9,Y
1702509915.7,286047007.1,P
1702509935.6,286047003.3,N
1702509955.4,286047002.6,N
1702509975.3,286047000.5,N
1702509995.1,286046997.0,N
1702509996.0,286046997.0,N
1702510015.8,286046997.6,N
1702510035.7,286046996.2,N
1702510055.5,286046993.7,N
1702510075.3,286046995.7,N
1702510095.2,286046997.7,N
1702510115.0,286046995.2,N
1702510115.9,286046995.2,N
1702510135.8,286046995.4,N
1702510155.6,286046997.6,N
1702510175.4,286046998.8,N
1702510195.3,286046998.5,N
1702510215.1,286046999.8,N
1702510235.8,286047003.5,N
1702510255.7,286047003.6,N
1702510275.5,286047001.8,N
1702510295.4,286047000.1,N
1702510315.2,286047002.8,N
1702510335.0,286047002.6,N
1702510335.9,286047002.6,N
1702510355.8,286047003.7,N
1702510375.6,286047005.3,N
1702510395.4,286047005.8,N
1702510415.3,286046999.9,N
1702510435.1,286047002.8,N
1702510455.9,286047000.8,N
1702510475.7,286047000.3,N
1702510495.5,286047001.3,N
1702510515.4,286047002.5,N
1702510535.2,286046998.4,N
1702510555.0,286046996.7,N
1702510556.0,286046996.7,N
1702510575.8,286046998.4,N
1702510595.6,286046996.5,N
1702510615.5,286046998.1,N
1702510635.3,286047000.9,N
1702510655.1,286047002.8,N
1702510675.9,286047005.7,N
1702510695.7,286047001.6,N
1702510715.6,286047004.8,N
1702510735.4,286047002.4,N
1702510755.2,286046999.2,N
1702510775.1,286046996.1,N
1702510776.0,286046996.1,N
1702510795.8,286046992.1,N
1702510815.6,286046995.8,N
1702510835.5,286046996.2,N
1702510855.3,286046995.8,N
1702510875.2,286046997.8,N
1702510895.9,286046993.8,N
1702510915.7,286046999.4,N
1702510935.6,286046999.8,N
1702510955.4,286047001.0,N
1702510975.2,286046996.8,N
1702510995.1,286046997.6,N
1702510996.0,286046997.6,N
1702511015.8,286046995.2,N
1702511035.7,286046993.7,N
1702511055.5,286046997.9,N
1702511075.3,286046995.1,N
1702511095.2,286046993.6,N
1702511115.0,286046992.6,N
1702511115.9,286046992.6,N
1702511135.7,286046990.9,N
1702511155.6,286046988.3,Y
1702511175.4,286046990.4,P
1702511195.3,286046990.4,N
1702511215.1,286046997.5,N
1702511235.8,286046999.5,N
1702511255.7,286046997.2,N
1702511275.5,286046997.9,N
1702511295.4,286046995.0,N
1702511315.2,286046996.7,N
1702511335.0,286046997.0,N
1702511335.9,286046997.0,N
1702511355.8,286046999.4,N
1702511375.6,286046997.7,N
1702511395.4,286046997.9,N
1702511415.3,286046993.7,N
1702511435.1,286046996.3,N
1702511455.9,286046993.4,N
1702511475.7,286046995.9,N
1702511495.5,286046997.9,N
1702511515.4,286046995.5,N
1702511535.2,286046993.4,N
1702511555.0,286046995.7,N
1702511555.9,286046995.7,N
1702511575.8,286046993.9,N
1702511595.6,286046995.5,N
1702511615.5,286046995.4,N
1702511635.3,286046997.9,N
1702511655.1,286046999.2,N
1702511675.9,286046997.4,N
1702511695.7,286047001.2,N
1702511715.6,286047002.2,N
1702511735.4,286047003.2,N
1702511755.2,286047007.1,N
1702511775.1,286047008.9,N
1702511776.0,286047008.9,N
1702511795.8,286047010.3,N
1702511815.6,286047010.6,N
1702511835.5,286047007.5,N
1702511855.3,286047006.6,N
1702511875.2,286047008.2,N
1702511895.9,286047007.9,N
1702511915.7,286047009.9,N
1702511935.6,286047012.4,N
1702511955.4,286047010.4,N
1702511975.2,286047014.0,N
1702511995.1,286047013.9,N
1702511996.0,286047013.9,N
